#timestamp,LO_Frequency,Hit,StdDev 
1599267615.6,286047002.6,N
1599267635.4,286046999.8,N
1599267655.3,286046998.8,N
1599267675.1,286047000.9,N
1599267695.9,286046998.6,N
1599267715.7,286046997.1,N
1599267735.5,286046997.4,N
1599267755.4,286046995.5,N
1599267775.2,286046995.1,N
1599267795.0,286046996.1,N
1599267795.9,286046996.1,N
1599267815.8,286046994.0,N
1599267835.6,286046998.0,N
1599267855.5,286046995.9,N
1599267875.3,286046993.7,N
1599267895.1,286046993.8,N
1599267915.9,286046993.5,N
1599267935.7,286046996.4,N
1599267955.5,286046997.6,N
1599267975.4,286046997.1,N
1599267995.2,286046995.0,N
1599268015.1,286046995.5,N
1599268016.0,286046995.5,N
1599268035.8,286046998.0,N
1599268055.6,286046997.7,N
1599268075.5,286046995.9,N
1599268095.3,286046994.1,N
1599268115.1,286046994.4,N
1599268135.9,286046994.2,N
1599268155.7,286046991.8,Y
1599268175.6,286046995.4,P
1599268195.4,286046995.3,P
1599268215.2,286046997.2,P
1599268235.1,286046998.0,N
1599268236.0,286046998.0,N
1599268255.8,286046995.1,Y
1599268275.7,286046999.4,P
1599268295.5,286046999.6,N
1599268315.3,286047000.7,N
1599268335.2,286047002.4,N
1599268355.0,286047000.2,N
1599268355.9,286047000.2,N
1599268375.7,286046998.1,N
1599268395.6,286047004.3,N
1599268415.4,286047001.8,N
1599268435.3,286047002.3,N
1599268455.1,286047005.3,N
1599268456.0,286047005.3,N
1599268475.8,286047003.5,N
1599268495.7,286047002.2,N
1599268515.5,286046999.8,N
1599268535.4,286047000.3,N
1599268555.2,286047000.4,N
1599268575.0,286047005.3,N
1599268575.9,286047005.3,N
1599268595.8,286047005.3,N
1599268615.6,286047002.1,N
1599268635.4,286047000.6,N
1599268655.3,286047000.0,N
1599268675.1,286047000.1,N
1599268695.9,286047004.0,N
1599268715.7,286047007.0,N
1599268735.5,286047008.4,Y
1599268755.4,286047006.4,P
1599268775.2,286047003.5,N
1599268795.1,286047001.7,N
1599268796.0,286047001.7,N
1599268815.8,286047002.4,N
1599268835.6,286047004.3,N
1599268855.5,286047001.8,N
1599268875.3,286047001.8,N
1599268895.1,286047002.5,N
1599268915.9,286047003.2,N
1599268935.7,286047002.4,N
1599268955.6,286047001.3,N
1599268975.4,286047006.0,Y
1599268995.2,286047003.8,P
1599269015.1,286047006.0,P
1599269016.0,286047006.0,P
1599269035.8,286047000.3,N
1599269055.7,286046999.8,N
1599269075.5,286047000.6,N
1599269095.3,286046999.0,N
1599269115.2,286046998.3,N
1599269135.9,286046996.9,N
1599269155.7,286046994.9,N
1599269175.6,286046995.6,N
1599269195.4,286046996.1,N
1599269215.3,286046995.1,N
1599269235.1,286046995.6,N
1599269236.0,286046995.6,N
1599269255.8,286046994.1,N
1599269275.7,286046996.1,N
1599269295.5,286046995.7,N
1599269315.3,286046995.1,N
1599269335.2,286046996.8,N
1599269355.0,286046995.3,N
1599269355.9,286046995.3,N
1599269375.8,286046993.3,N
1599269395.6,286046993.6,N
1599269415.4,286046995.8,N
1599269435.3,286046994.9,N
1599269455.1,286046995.1,N
1599269475.8,286046995.2,N
1599269495.7,286046993.3,N
1599269515.5,286046995.2,N
1599269535.4,286046995.5,N
1599269555.2,286046995.1,N
1599269575.0,286046994.9,N
1599269575.9,286046994.9,N
1599269595.8,286046997.6,N
1599269615.6,286046996.8,N
1599269635.4,286046999.6,N
1599269655.3,286046995.5,Y
1599269675.1,286047000.3,P
1599269695.9,286047003.9,N
1599269715.7,286047003.3,N
1599269735.5,286047004.7,N
1599269755.4,286047004.8,N
1599269775.2,286047004.5,N
1599269795.1,286047005.0,N
1599269796.0,286047005.0,N
1599269815.8,286047004.9,N
1599269835.6,286047006.9,N
1599269855.5,286047010.7,Y
1599269875.3,286047005.2,P
1599269895.1,286047004.6,P
1599269915.9,286047007.1,P
1599269935.7,286047006.6,Y
1599269955.6,286047002.3,P
1599269975.4,286047004.3,P
1599269995.2,286047004.4,P
1599270015.1,286047001.3,N
1599270016.0,286047001.3,N
1599270035.8,286046999.9,N
1599270055.7,286047000.9,N
1599270075.5,286046998.8,N
1599270095.3,286046997.7,N
1599270115.2,286046995.1,N
1599270135.0,286047000.7,N
1599270135.9,286047000.7,N
1599270155.7,286046999.1,N
1599270175.6,286046996.6,N
1599270195.4,286046998.2,N
1599270215.3,286047000.4,N
1599270235.1,286047001.1,N
1599270236.0,286047001.1,N
1599270255.8,286046997.0,N
1599270275.7,286046997.2,N
1599270295.5,286046998.7,N
1599270315.3,286046998.6,N
1599270335.2,286046998.0,N
1599270355.0,286046997.2,N
1599270355.9,286046997.2,N
1599270375.8,286047001.0,N
1599270395.6,286046997.1,N
1599270415.4,286046995.8,N
1599270435.3,286046999.5,N
1599270455.1,286046998.6,N
1599270475.9,286046997.4,N
1599270495.7,286046993.4,N
1599270515.5,286046995.4,N
1599270535.4,286046995.3,N
1599270555.2,286046996.8,N
1599270575.0,286046995.0,N
1599270575.9,286046995.0,N
1599270595.8,286046996.0,N
1599270615.6,286046997.4,N
1599270635.5,286046996.4,N
1599270655.3,286046993.4,Y
1599270675.1,286046996.2,P
1599270695.9,286046995.7,P
1599270715.7,286046996.7,P
1599270735.5,286046995.9,Y
1599270755.4,286047002.6,P
1599270775.2,286047000.0,N
1599270795.1,286047000.1,N
1599270796.0,286047000.1,N
1599270815.8,286047001.9,N
1599270835.6,286047003.9,N
1599270855.5,286047001.5,N
1599270875.3,286047006.0,N
1599270895.1,286047004.4,N
1599270915.9,286047002.2,N
1599270935.7,286047002.0,N
1599270955.6,286047001.9,N
1599270975.4,286047001.9,N
1599270995.2,286047000.7,N
1599271015.1,286046998.5,N
1599271016.0,286046998.5,N
1599271035.8,286047003.9,N
1599271055.7,286047004.7,N
1599271075.5,286047007.3,Y
1599271095.3,286047003.2,P
1599271115.2,286047005.3,P
1599271135.0,286047003.9,N
1599271135.9,286047003.9,N
1599271155.7,286047002.8,N
1599271175.6,286047000.1,N
1599271195.4,286047000.8,N
